Weather Roundup
Issued by NWS Chicago, IL

Home | Current Version | Previous Version | Graphics & Text | Print | Product List | Glossary On
Versions: 1 2 3 4 5 6 7 8 9 10 11 12 13 14 15 16 17 18 19 20 21 22 23 24 25 26 27 28 29 30 31 32 33 34 35 36 37 38 39 40 41 42 43 44 45 46 47 48 49 50
253
NZUS59 KLOT 161508
HRRLOT

CHICAGO AREA WEATHER ROUNDUP
NATIONAL WEATHER SERVICE CHICAGO/ROMEOVILLE IL
900 AM CST TUE JAN 16 2018

NOTE: "FAIR" INDICATES FEW OR NO CLOUDS BELOW 12,000 FEET WITH NO
SIGNIFICANT WEATHER AND/OR OBSTRUCTIONS TO VISIBILITY.

* THESE STATIONS ARE NOT UNDER NWS QUALITY CONTROL. THEY ALSO MAY NOT
  REPORT WEATHER SUCH AS PRECIPITATION OR FOG.

ILZ005-006-012>014-019>023-161600-
NORTHEAST ILLINOIS

CITY           SKY/WX    TMP DP  RH WIND       PRES   REMARKS
OHARE          PTSUNNY   17  12  80 NW14      30.43R WCI   3
MIDWAY         LGT SNOW  15  11  83 W9        30.44R FOG     WCI   3
AURORA         CLOUDY    10   6  84 W13       30.46R WCI  -5
LANSING*       LGT SNOW   8   4  87 CALM      30.45R
JOLIET*        LGT SNOW  10   6  84 W7        30.48R WCI  -2
WAUKEGAN       LGT SNOW  20  14  77 NW9       30.42R VSB 1   WCI   9
DUPAGE AIRPORT LGT SNOW  15  12  88 NW9       30.44R FOG     WCI   3
WHEELING       CLOUDY    19  14  81 NW10      30.44R HAZE    WCI   7
KANKAKEE*      FLURRIES   5  -1  78 W16       30.50R WCI -14
MORRIS*        LGT SNOW   6   2  80 W12       30.49R WCI  -9
LEWIS AIRPORT* LGT SNOW   9   5  86 W12       30.46R WCI  -6
NORTHERLY ISL    N/A     17  14  88 W15         N/A  WCI   3
$$

WIZ051-052-058>065-066-070>072-161600-
SOUTHEAST WISCONSIN

CITY           SKY/WX    TMP DP  RH WIND       PRES   REMARKS
MILWAUKEE      LGT SNOW  20  14  77 NW9       30.43R WCI   9
KENOSHA*       LGT SNOW  17  12  80 NW8       30.42R WCI   7
RACINE*        LGT SNOW  19  16  88 NW9       30.44R VSB 1   WCI   8
BURLINGTON       N/A     15  10  80 NW9       30.44R HAZE    WCI   4
WAUKESHA       CLOUDY    14  10  85 NW7       30.45R WCI   4
WEST BEND        N/A     14  10  85 N9        30.44R WCI   2
$$

INZ001>003-010>013-019-020-161600-
NORTHWEST INDIANA

CITY           SKY/WX    TMP DP  RH WIND       PRES   REMARKS
GARY*          LGT SNOW  10   5  79 W16       30.44R VSB 1   WCI  -7
MICHIGAN CITY* NOT AVBL
RENSSELAER*    NOT AVBL
VALPARAISO     LGT SNOW   3  -2  79 SW12      30.43S VSB 1   WCI -13
$$

LMZ740>746-161600-
SOUTHERN LAKE MICHIGAN

STATION/POSITION TIME  SKY/WX   TEMP WIND        PRES    VSBY
                                AIR  DIR/SP/G
                 (UTC)          (F)  (DEG/KT/KT) (MB)    (MI)
HARRISON CRIB    1440            19  300/ 19/ 20   N/A
BURNHAM HARBOR   1500            18  260/ 12/ 16   N/A
CALUMET HARBOR   1442            12  240/  9/ 12 1029.5R
BURNS HARBOR     1440             6  210/ 11/ 16 1030.5R
MICHIGAN CITY    1440                180/ 12/ 14   N/A
$$

ABBREVIATIONS USED IN REMARKS
   TC - TEMPERATURE IN CELSIUS
  WCI - WIND CHILL INDEX
   HX - HEAT INDEX
  VSB - VISIBILITY
$$




USA.gov is the U.S. government's official web portal to all federal, state and local government web resources and services.